[[{"header":{"parameterUnit":"m.s-1","parameterCategory":1,"la1":30.2991,"la2":30.254,"lo1":-89.0895,"lo2":-89.0444,"dy":0.0017,"dx":0.0017,"nx":28,"ny":28,"refTime":"2023-08-19T09:00:00:Z","depth":0,"parameterNumber":2,"parameterNumberName":"U-component_of_WINDS"},"data":[0,0,0,0,0,0,0,0,0,0,0,0,0,0,0,0,0,0,0,0,0,0,0,0,0,0,0,0,0,0,0,0,0,0,0,0,0,0,0,0,0,0,0,0,0,0,0,0,0,0,0,0,0,0,0,0,0,0,3.0916,3.0916,0,3.0913,3.0913,3.0913,3.0806,3.0803,3.08,3.0798,3.0796,3.0798,3.08,0,0,0,0,0,0,0,0,0,0,0,0,0,3.0832,3.0834,3.0916,3.0916,3.0916,3.0913,3.0913,3.0913,3.0806,3.0803,3.08,3.0797,3.0795,3.0798,3.0801,0,0,0,0,0,0,0,0,0,0,0,0,0,3.0852,3.0835,3.0916,3.0863,3.0858,3.0913,3.0913,3.0913,3.0807,3.0803,3.0799,3.0795,3.0794,3.0797,3.0801,3.0907,0,0,3.0813,3.0814,0,0,0,0,0,0,0,0,3.0851,3.0856,3.0871,3.0867,3.0861,3.0855,3.0882,3.0911,3.0808,3.0827,3.0798,3.0793,3.0819,3.082,3.0829,3.0907,3.0907,3.0813,3.0815,3.0817,3.0818,0,0,0,0,0,0,0,3.085,3.0855,3.0915,3.0871,3.0865,3.0839,3.0837,3.0887,3.0846,3.0825,3.0817,3.0818,3.0816,3.0825,3.0828,3.0907,3.0813,3.0816,3.0819,3.082,3.1069,3.1073,0,0,0,0,0,0,3.0856,3.0855,3.0915,3.0915,3.0846,3.0844,3.0842,3.0862,3.0845,3.0839,3.0821,3.0813,3.0821,3.0824,3.0828,3.0947,3.0817,3.082,3.0823,3.1065,3.107,3.1075,0,0,0,0,0,0,3.0855,3.0862,3.0915,3.0883,3.0887,3.085,3.0873,3.0864,3.0873,3.0843,3.0835,3.0839,3.0818,3.0822,3.0887,3.0946,3.0822,3.0825,3.106,3.1066,3.1072,3.1191,0,0,0,0,0,0,3.0853,3.0862,3.0902,3.0884,3.089,3.0975,3.0876,3.0867,3.088,3.0869,3.0857,3.0851,3.0815,3.0882,3.0891,3.0949,3.0828,3.1054,3.1063,3.107,3.1181,3.12,3.1217,0,0,0,0,0,3.085,3.0937,3.0905,3.0913,3.0938,3.0979,3.0982,3.0938,3.0885,3.0924,3.0905,3.0852,3.0939,3.089,3.0899,3.0959,3.105,3.106,3.107,3.1173,3.1197,3.1216,0,0,0,0,0,0,3.0963,3.0933,3.0898,3.0981,3.0983,3.0961,3.1009,3.0965,3.0982,3.0971,3.0916,3.0915,3.0988,3.098,3.0926,3.1059,3.0985,3.0997,3.1061,3.1083,3.11,3.1099,3.0832,0,0,0,0,0,3.0998,3.1033,3.1005,3.1082,3.1084,3.1047,3.1063,3.1029,3.1029,3.103,3.1014,3.1017,3.1044,3.1064,3.1088,3.1181,3.1175,3.1227,3.1244,3.1259,3.1269,3.1315,3.1336,3.1107,3.1107,3.1107,0,0,3.107,3.1058,3.1084,3.1104,3.1102,3.1138,3.1048,3.1092,3.1118,3.1036,3.1095,3.1085,3.1084,3.1163,3.1197,3.1159,3.1332,3.1272,3.1284,3.1285,3.1327,3.1349,3.1368,3.1114,3.1112,3.1111,0,0,3.1219,3.1215,3.1276,3.1275,3.1272,3.1247,3.1262,3.1246,3.1235,3.1294,3.1233,3.1264,3.1314,3.1314,3.1322,3.1471,3.1421,3.1481,3.1572,3.1617,3.1635,3.1651,3.1701,3.172,3.1491,3.1492,3.1492,0,3.1309,3.1361,3.1314,3.136,3.137,3.1298,3.1358,3.1361,3.1366,3.1375,3.1333,3.1391,3.1386,3.1462,3.1499,3.1508,3.1522,3.148,3.1637,3.1652,3.1666,3.1713,3.1732,3.1499,3.1498,3.1497,3.1497,0,3.147,3.1508,3.1558,3.1563,3.1579,3.1633,3.1594,3.1616,3.1581,3.156,3.162,3.1611,3.1631,3.1647,3.1615,3.1719,3.1695,3.1646,3.1569,3.1695,3.1738,3.1756,3.1509,3.1506,3.1504,3.1502,0,0,3.1688,3.1666,3.1685,3.1685,3.1677,3.1705,3.1756,3.1774,3.1793,3.18,3.1839,3.1883,3.1837,3.1845,3.1812,3.1852,3.1967,3.1797,3.1797,3.1826,3.2078,3.2112,3.2134,3.1936,3.1939,3.1942,3.2077,0,3.1829,3.1912,3.1871,3.1959,3.1992,3.1923,3.1967,3.1967,3.1949,3.1974,3.1955,3.1985,3.1924,3.1928,3.1965,3.1945,3.2016,3.1935,3.197,3.1972,3.1968,3.2157,3.2193,3.232,3.2093,3.2096,3.2098,0,3.2003,3.2016,3.2107,3.209,3.2102,3.2142,3.2154,3.2181,3.2178,3.2162,3.2172,3.2129,3.2177,3.2104,3.2168,3.2114,3.2127,3.2119,3.2123,3.2121,3.204,3.2157,3.2361,3.2378,3.2125,3.2123,3.2121,0,3.2148,3.2189,3.2247,3.225,3.2234,3.2263,3.2257,3.2251,3.2264,3.2276,3.2283,3.2302,3.2311,3.2326,3.2288,3.224,3.2357,3.2282,3.2343,3.2344,3.2368,3.2366,3.2573,3.2383,3.2383,3.2382,3.2382,0,3.2307,3.2365,3.2311,3.2347,3.241,3.2362,3.2425,3.2413,3.2408,3.244,3.2384,3.2415,3.2366,3.2392,3.2364,3.242,3.2426,3.2413,3.2404,3.2416,3.2417,3.242,3.2409,3.2387,3.2386,3.2385,3.2384,0,3.2478,3.2445,3.2504,3.2483,3.2479,3.2526,3.2508,3.254,3.2518,3.2559,3.2566,3.2533,3.2561,3.2526,3.2552,3.2533,3.2608,3.2588,3.2608,3.26,3.2662,3.2656,3.2875,3.29,3.2698,3.27,3.2702,0,3.258,3.2622,3.2605,3.2622,3.2619,3.2648,3.266,3.2616,3.2631,3.2632,3.2664,3.2687,3.2702,3.2751,3.2729,3.2748,3.2725,3.2801,3.2728,3.2737,3.2722,3.2718,3.2721,3.2815,3.2817,3.2819,3.2821,0,3.2763,3.2744,3.2763,3.2778,3.2794,3.2803,3.2808,3.2826,3.2779,3.28,3.2827,3.2839,3.2865,3.2887,3.29,3.2895,3.285,3.2845,3.2859,3.2869,3.2878,3.287,3.2644,3.2839,3.2837,3.2836,3.2835,3.2834,3.2899,3.2932,3.2925,3.2948,3.2947,3.2953,3.2981,3.2963,3.2985,3.3001,3.2974,3.3008,3.3004,3.3017,3.3016,3.3042,3.3009,3.3031,3.3036,3.3041,3.3049,3.2877,3.3045,3.3044,3.3044,3.3043,3.3043,0,3.3075,3.3067,3.3089,3.3097,3.3115,3.3072,3.3076,3.3094,3.3124,3.3124,3.314,3.3171,3.3193,3.3173,3.3191,3.3215,3.3195,3.3221,3.3217,3.3216,3.3079,3.3062,3.3237,3.3237,3.3237,3.3237,3.3237,3.3237,3.3168,3.3221,3.3202,3.3253,3.3245,3.3276,3.3282,3.3287,3.3286,3.3322,3.334,3.3327,3.3318,3.3335,3.3353,3.3347,3.3354,3.3387,3.3373,3.3245,3.3226,3.3207,3.3192,3.339,3.3391,3.3507,3.3508,3.3509]},{"header":{"parameterUnit":"m.s-1","parameterCategory":1,"la1":30.2991,"la2":30.254,"lo1":-89.0895,"lo2":-89.0444,"dy":0.0017,"dx":0.0017,"nx":28,"ny":28,"refTime":"2023-08-19T09:00:00:Z","depth":0,"parameterNumber":3,"parameterNumberName":"V-component_of_WINDS"},"data":[0,0,0,0,0,0,0,0,0,0,0,0,0,0,0,0,0,0,0,0,0,0,0,0,0,0,0,0,0,0,0,0,0,0,0,0,0,0,0,0,0,0,0,0,0,0,0,0,0,0,0,0,0,0,0,0,0,0,2.6347,2.6348,0,2.6414,2.6415,2.6415,2.6409,2.6407,2.6406,2.6405,2.647,2.6473,2.6476,0,0,0,0,0,0,0,0,0,0,0,0,0,2.6209,2.6211,2.6347,2.6348,2.6348,2.6414,2.6415,2.6415,2.6409,2.6407,2.6406,2.6405,2.6469,2.6473,2.6476,0,0,0,0,0,0,0,0,0,0,0,0,0,2.6271,2.6212,2.6347,2.6353,2.6354,2.6413,2.6415,2.6416,2.6409,2.6407,2.6406,2.6404,2.6468,2.6472,2.6476,2.6532,0,0,2.6489,2.649,0,0,0,0,0,0,0,0,2.6268,2.6276,2.6351,2.6353,2.6354,2.6401,2.639,2.6455,2.6409,2.6388,2.6405,2.6404,2.6448,2.6454,2.647,2.6535,2.6538,2.6489,2.6491,2.6493,2.6494,0,0,0,0,0,0,0,2.6264,2.6274,2.6373,2.6352,2.6354,2.6351,2.6358,2.6402,2.6426,2.639,2.6389,2.6398,2.6449,2.6466,2.6471,2.6539,2.6489,2.6492,2.6495,2.6497,2.6652,2.6654,0,0,0,0,0,0,2.6258,2.627,2.6371,2.6375,2.6306,2.6355,2.6363,2.6388,2.6426,2.643,2.6399,2.6397,2.646,2.6467,2.6474,2.654,2.6493,2.6497,2.6499,2.665,2.6652,2.6654,0,0,0,0,0,0,2.6255,2.6267,2.6368,2.6323,2.6335,2.6359,2.6387,2.639,2.6407,2.6433,2.6436,2.6412,2.6459,2.6468,2.6518,2.6542,2.6499,2.6502,2.6648,2.6651,2.6653,2.6674,0,0,0,0,0,0,2.6251,2.6266,2.6289,2.6323,2.6338,2.6413,2.6388,2.6392,2.6414,2.6413,2.6446,2.645,2.6458,2.6512,2.6522,2.6547,2.6506,2.6646,2.6649,2.6652,2.6672,2.6677,2.6682,0,0,0,0,0,2.6246,2.6292,2.629,2.6302,2.6367,2.6414,2.6422,2.6432,2.6416,2.6438,2.6455,2.6449,2.6538,2.6517,2.6528,2.6555,2.6644,2.6648,2.6652,2.6669,2.6676,2.6682,0,0,0,0,0,0,2.6259,2.6296,2.6295,2.6353,2.6381,2.6413,2.6441,2.6439,2.6471,2.6468,2.6477,2.6485,2.6535,2.655,2.6525,2.661,2.6589,2.6595,2.6598,2.6605,2.661,2.6605,2.6509,0,0,0,0,0,2.6268,2.6305,2.6336,2.6384,2.6398,2.6417,2.6438,2.6443,2.6472,2.6483,2.6503,2.6529,2.6563,2.6585,2.6618,2.6674,2.668,2.6698,2.6704,2.6708,2.6713,2.6741,2.6749,2.6667,2.6667,2.6667,0,0,2.6288,2.6313,2.6336,2.6387,2.6409,2.6445,2.6427,2.6466,2.6493,2.6488,2.6536,2.6552,2.6582,2.6635,2.6659,2.6649,2.6737,2.6713,2.6716,2.6718,2.6746,2.6754,2.6761,2.6669,2.6669,2.6668,0,0,2.6343,2.6366,2.6408,2.6431,2.6464,2.6477,2.6487,2.652,2.653,2.6579,2.6576,2.6607,2.6666,2.6687,2.6705,2.6767,2.6762,2.6777,2.6805,2.6833,2.6839,2.6845,2.6865,2.6872,2.6782,2.6782,2.6783,0,2.6362,2.6418,2.643,2.6469,2.6491,2.649,2.6531,2.6552,2.6595,2.6609,2.6598,2.667,2.6691,2.6748,2.6763,2.6778,2.6788,2.6773,2.6838,2.6844,2.6849,2.6868,2.6876,2.6784,2.6784,2.6784,2.6784,0,2.644,2.6479,2.6508,2.655,2.6575,2.6615,2.6631,2.6655,2.6658,2.6671,2.672,2.6745,2.6781,2.6796,2.6799,2.6852,2.6845,2.6836,2.6814,2.6858,2.6876,2.6884,2.6786,2.6786,2.6785,2.6785,0,0,2.6503,2.6551,2.6561,2.6579,2.6616,2.6646,2.6685,2.6722,2.6742,2.6771,2.6803,2.6853,2.6844,2.6865,2.687,2.6895,2.694,2.6883,2.6883,2.6891,2.6998,2.7004,2.7012,2.6938,2.6939,2.6941,2.6995,0,2.656,2.6631,2.6642,2.6704,2.6738,2.6738,2.6772,2.6798,2.6811,2.6841,2.6856,2.689,2.6877,2.6889,2.6914,2.6929,2.6962,2.6926,2.6966,2.6967,2.6956,2.7022,2.7028,2.7079,2.7003,2.7004,2.7005,0,2.6635,2.6667,2.6732,2.6763,2.6778,2.6809,2.6843,2.6873,2.6901,2.6909,2.6932,2.6935,2.6974,2.6952,2.7005,2.6981,2.6998,2.7008,2.701,2.7012,2.6987,2.7024,2.7095,2.7102,2.7016,2.7016,2.7015,0,2.6672,2.6731,2.6777,2.6793,2.6832,2.6853,2.6869,2.6896,2.6918,2.6947,2.6961,2.6994,2.7012,2.7037,2.7048,2.7032,2.71,2.7079,2.7105,2.7105,2.7118,2.7117,2.7191,2.7133,2.7132,2.7132,2.7132,0,2.6732,2.6772,2.6794,2.6823,2.6866,2.6879,2.6921,2.6937,2.6961,2.6991,2.6993,2.7021,2.7034,2.7064,2.7072,2.7114,2.7122,2.7128,2.7129,2.7127,2.7126,2.7137,2.7133,2.7134,2.7134,2.7133,2.7133,0,2.678,2.6797,2.6847,2.688,2.6889,2.6919,2.6946,2.6973,2.6986,2.7024,2.7034,2.7054,2.7089,2.7102,2.7145,2.715,2.7198,2.7197,2.7188,2.7188,2.7213,2.7209,2.7294,2.7305,2.7242,2.7242,2.7243,0,2.6817,2.6847,2.6883,2.6904,2.6921,2.6955,2.6977,2.699,2.7012,2.7046,2.7068,2.7103,2.7132,2.7187,2.7205,2.7237,2.7236,2.7264,2.724,2.7236,2.7234,2.7231,2.7233,2.7267,2.7268,2.7268,2.7269,0,2.6879,2.6886,2.6918,2.6953,2.6979,2.7007,2.7034,2.705,2.7067,2.7092,2.7128,2.715,2.7194,2.7228,2.7261,2.7276,2.7274,2.7276,2.7283,2.728,2.7273,2.7275,2.7198,2.7273,2.7273,2.7273,2.7272,2.7272,2.6921,2.6948,2.6977,2.7012,2.7034,2.7059,2.7085,2.7102,2.7133,2.717,2.7175,2.7213,2.724,2.7284,2.7301,2.733,2.7322,2.7333,2.7336,2.7338,2.7339,2.727,2.7336,2.7336,2.7336,2.7336,2.7336,0,2.6982,2.7001,2.7033,2.7071,2.7098,2.7097,2.7126,2.7148,2.7182,2.7208,2.7236,2.7276,2.7309,2.733,2.7363,2.7382,2.7382,2.739,2.7387,2.739,2.7344,2.7334,2.7389,2.7389,2.7389,2.7389,2.7389,2.7389,2.7017,2.7061,2.7071,2.7126,2.7144,2.7182,2.7199,2.7221,2.7241,2.7287,2.7315,2.7328,2.7351,2.7385,2.7415,2.742,2.7431,2.7439,2.7443,2.7399,2.7394,2.7388,2.7379,2.7442,2.7442,2.7487,2.7487,2.7487]}]]